Grand Prairie, TX

6:31 AM CDT on May 23, 2017 (GMT -0500)
Grand Prairie Municipal

Weather History for KGPM - July, 2013

Change the Weather History Date:

Saturday, July 13, 2013

  Actual Average (KRBD) Record (KRBD)
Temperature  
Mean Temperature 88 °F -  
Max Temperature 98 °F 93 °F 104 °F (2011)
Min Temperature 78 °F 73 °F 66 °F (1999)
Cooling Degree Days 23    
Growing Degree Days 38 (Base 50)    
Moisture  
Dew Point 64 °F    
Average Humidity 49    
Maximum Humidity 69    
Minimum Humidity 29    
Precipitation  
Precipitation 0.00 in - - ()
Sea Level Pressure  
Sea Level Pressure 29.96 in    
Wind  
Wind Speed 7 mph (ESE)    
Max Wind Speed 12 mph    
Max Gust Speed 16 mph    
Visibility 10 miles    
Events      
Averages and records for this station are not official NWS values.
T = Trace of Precipitation, MM = Missing Value Source: NWS Daily Summary

Daily Weather History Graph

Daily Weather History Graph

Search for Another Location

Airport or City:

Trip Planner

Search our weather history database for the weather conditions in past years. The results will help you decide how hot, cold, wet, or windy it might be!

Date:

Astronomy

Jul. 13, 2013 Rise Set
Actual Time 6:30 AM CDT 8:37 PM CDT
Civil Twilight 6:02 AM CDT 9:05 PM CDT
Nautical Twilight 5:28 AM CDT 9:39 PM CDT
Astronomical Twilight 4:51 AM CDT 10:16 PM CDT
Moon 11:27 AM CDT (7/13) 11:40 PM CDT (7/13)
Length of Visible Light 15h 03m
Length of Day
14h 07m
Waxing Crescent, 26% of the Moon is Illuminated
Jul 13
Waxing Crescent
Jul 15
First Quarter
Jul 22
Full
Jul 29
Last Quarter
Aug 6
New

Hourly Weather History & Observations

Time (CDT) Temp. Heat Index Dew Point Humidity Pressure Visibility Wind Dir Wind Speed Gust Speed Precip Events Conditions
12:15 AM 87.8 °F 88.5 °F 62.6 °F 43% 29.95 in 10.0 mi Calm Calm - N/A   Clear
12:35 AM 86.0 °F 87.3 °F 64.4 °F 48% 29.96 in 10.0 mi East 5.8 mph - N/A   Clear
12:55 AM 86.0 °F 87.3 °F 64.4 °F 48% 29.96 in 10.0 mi East 9.2 mph - N/A   Clear
1:15 AM 86.0 °F 87.3 °F 64.4 °F 48% 29.97 in 10.0 mi East 6.9 mph - N/A   Clear
1:35 AM 86.0 °F 87.3 °F 64.4 °F 48% 29.97 in 10.0 mi East 8.1 mph - N/A   Clear
1:55 AM 86.0 °F 88.2 °F 66.2 °F 51% 29.96 in 10.0 mi East 8.1 mph - N/A   Clear
2:15 AM 84.2 °F 86.6 °F 66.2 °F 55% 29.96 in 10.0 mi ESE 9.2 mph - N/A   Clear
2:35 AM 84.2 °F 86.6 °F 66.2 °F 55% 29.96 in 10.0 mi East 6.9 mph - N/A   Clear
2:55 AM 82.4 °F 84.6 °F 66.2 °F 58% 29.96 in 10.0 mi ESE 9.2 mph - N/A   Clear
3:15 AM 82.4 °F 84.6 °F 66.2 °F 58% 29.96 in 10.0 mi ESE 9.2 mph - N/A   Clear
3:35 AM 82.4 °F 84.6 °F 66.2 °F 58% 29.96 in 10.0 mi ESE 9.2 mph - N/A   Clear
3:55 AM 82.4 °F 84.6 °F 66.2 °F 58% 29.96 in 10.0 mi SE 10.4 mph - N/A   Clear
4:15 AM 82.4 °F 85.4 °F 68.0 °F 62% 29.96 in 10.0 mi SE 6.9 mph - N/A   Clear
4:35 AM 80.6 °F 83.2 °F 68.0 °F 65% 29.96 in 10.0 mi ESE 8.1 mph - N/A   Clear
4:55 AM 80.6 °F 83.2 °F 68.0 °F 65% 29.96 in 10.0 mi SE 8.1 mph - N/A   Clear
5:15 AM 80.6 °F 83.2 °F 68.0 °F 65% 29.97 in 10.0 mi ESE 5.8 mph - N/A   Clear
5:35 AM 80.6 °F 83.2 °F 68.0 °F 65% 29.97 in 10.0 mi ESE 10.4 mph - N/A   Clear
5:55 AM 80.6 °F 83.2 °F 68.0 °F 65% 29.98 in 10.0 mi SE 9.2 mph - N/A   Clear
6:15 AM 78.8 °F - 68.0 °F 69% 29.99 in 10.0 mi ESE 5.8 mph - N/A   Clear
6:35 AM 78.8 °F - 68.0 °F 69% 29.99 in 10.0 mi ESE 4.6 mph - N/A   Clear
6:50 AM 80.6 °F 83.2 °F 68.0 °F 65% 30.00 in 10.0 mi ESE 6.9 mph - N/A   Clear
6:55 AM 78.8 °F - 68.0 °F 69% 30.00 in 10.0 mi ESE 8.1 mph - N/A   Clear
7:50 AM 82.4 °F 85.4 °F 68.0 °F 62% 30.01 in 10.0 mi East 8.1 mph - N/A   Clear
8:55 AM 84.2 °F 86.6 °F 66.2 °F 55% 30.03 in 10.0 mi ESE 8.1 mph - N/A   Clear
9:55 AM 84.2 °F 86.6 °F 66.2 °F 55% 30.02 in 10.0 mi ESE 9.2 mph - N/A   Clear
10:50 AM 89.6 °F 92.2 °F 66.2 °F 46% 30.01 in 10.0 mi SSE 8.1 mph - N/A   Clear
11:50 AM 91.4 °F 94.0 °F 66.2 °F 43% 30.00 in 10.0 mi SE 6.9 mph - N/A   Clear
12:50 PM 95.0 °F 97.0 °F 64.4 °F 36% 29.99 in 10.0 mi Calm Calm - N/A   Clear
1:57 PM 96.8 °F 98.0 °F 62.6 °F 32% 29.96 in 10.0 mi Calm Calm - N/A   Clear
2:58 PM 98.6 °F 100.0 °F 62.6 °F 30% 29.93 in 10.0 mi Calm Calm - N/A   Clear
3:50 PM 98.6 °F 100.0 °F 62.6 °F 30% 29.92 in 10.0 mi Calm Calm - N/A   Clear
4:54 PM 98.6 °F 99.4 °F 60.8 °F 29% 29.91 in 10.0 mi East 9.2 mph 16.1 mph N/A   Clear
5:50 PM 98.6 °F 99.4 °F 60.8 °F 29% 29.90 in 10.0 mi East 9.2 mph - N/A   Clear
9:15 PM 89.6 °F 87.3 °F 53.6 °F 29% 29.92 in 10.0 mi East 11.5 mph - N/A   Clear
9:35 PM 87.8 °F 86.1 °F 55.4 °F 33% 29.92 in 10.0 mi East 10.4 mph - N/A   Clear
9:55 PM 87.8 °F 86.1 °F 55.4 °F 33% 29.93 in 10.0 mi East 11.5 mph - N/A   Clear
10:15 PM 86.0 °F 84.5 °F 55.4 °F 35% 29.94 in 10.0 mi East 11.5 mph - N/A   Clear
10:35 PM 86.0 °F 84.5 °F 55.4 °F 35% 29.94 in 10.0 mi East 10.4 mph - N/A   Clear
10:55 PM 86.0 °F 84.9 °F 57.2 °F 37% 29.94 in 10.0 mi East 11.5 mph - N/A   Clear
11:15 PM 86.0 °F 84.9 °F 57.2 °F 37% 29.95 in 10.0 mi East 10.4 mph - N/A   Clear
11:35 PM 84.2 °F 83.0 °F 55.4 °F 37% 29.96 in 10.0 mi ESE 8.1 mph - N/A   Clear
11:55 PM 82.4 °F 81.4 °F 53.6 °F 37% 29.97 in 10.0 mi ESE 8.1 mph - N/A   Clear